TimeMST,TemperatureF,Dew PointF,Humidity,Sea Level PressureIn,VisibilityMPH,Wind Direction,Wind SpeedMPH,Gust SpeedMPH,PrecipitationIn,Events,Conditions,WindDirDegrees,DateUTC
12:53 AM,35.1,12.9,40,30.21,10.0,Calm,Calm,-,N/A,,Clear,0,2012-01-30 07:53:00
1:53 AM,33.1,14.0,46,30.19,10.0,Calm,Calm,-,N/A,,Clear,0,2012-01-30 08:53:00
2:53 AM,32.0,15.1,50,30.17,10.0,Calm,Calm,-,N/A,,Clear,0,2012-01-30 09:53:00
3:53 AM,30.0,14.0,51,30.16,10.0,WSW,3.5,-,N/A,,Clear,240,2012-01-30 10:53:00
4:53 AM,30.9,16.0,54,30.14,10.0,Calm,Calm,-,N/A,,Clear,0,2012-01-30 11:53:00
5:53 AM,30.0,16.0,56,30.14,7.0,WSW,3.5,-,N/A,,Clear,250,2012-01-30 12:53:00
6:01 AM,30.2,15.8,55,30.14,1.8,West,3.5,-,N/A,,Haze,260,2012-01-30 13:01:00
6:16 AM,30.2,15.8,55,30.14,3.0,West,3.5,-,N/A,,Haze,260,2012-01-30 13:16:00
6:53 AM,30.0,15.1,54,30.15,9.0,Calm,Calm,-,N/A,,Clear,0,2012-01-30 13:53:00
7:53 AM,30.9,16.0,54,30.15,10.0,Calm,Calm,-,N/A,,Clear,0,2012-01-30 14:53:00
8:53 AM,36.0,19.0,50,30.14,10.0,Calm,Calm,-,N/A,,Clear,0,2012-01-30 15:53:00
9:53 AM,37.9,19.0,47,30.15,10.0,North,3.5,-,N/A,,Clear,10,2012-01-30 16:53:00
10:53 AM,42.1,18.0,38,30.13,10.0,Calm,Calm,-,N/A,,Clear,0,2012-01-30 17:53:00
11:53 AM,43.0,16.0,34,30.12,10.0,Calm,Calm,-,N/A,,Clear,0,2012-01-30 18:53:00
12:53 PM,46.0,17.1,31,30.05,10.0,North,5.8,-,N/A,,Clear,10,2012-01-30 19:53:00
1:53 PM,46.0,15.1,29,30.01,10.0,SW,4.6,-,N/A,,Clear,220,2012-01-30 20:53:00
2:53 PM,50.0,15.1,25,30.00,10.0,Calm,Calm,-,N/A,,Clear,0,2012-01-30 21:53:00
3:53 PM,50.0,14.0,24,29.98,10.0,ENE,3.5,-,N/A,,Clear,70,2012-01-30 22:53:00
4:53 PM,48.9,12.0,23,29.98,10.0,North,3.5,-,N/A,,Clear,350,2012-01-30 23:53:00
5:53 PM,46.9,12.9,25,29.99,10.0,Calm,Calm,-,N/A,,Clear,0,2012-01-31 00:53:00
6:53 PM,44.1,14.0,30,30.01,10.0,Calm,Calm,-,N/A,,Clear,0,2012-01-31 01:53:00
7:53 PM,43.0,15.1,32,30.02,8.0,Calm,Calm,-,N/A,,Clear,0,2012-01-31 02:53:00
8:53 PM,43.0,16.0,34,30.01,5.0,Calm,Calm,-,N/A,,Haze,0,2012-01-31 03:53:00
9:53 PM,41.0,17.6,39,30.02,9.0,Calm,Calm,-,N/A,,Clear,0,2012-01-31 04:53:00
10:53 PM,39.9,17.1,40,30.01,10.0,Calm,Calm,-,N/A,,Clear,0,2012-01-31 05:53:00
11:53 PM,39.0,19.0,45,30.02,10.0,Calm,Calm,-,N/A,,Clear,0,2012-01-31 06:53:00